Showing default

QIANFAN-23, 61556

Orbit data source: Space-Track

QIANFAN-23, 61556 is a Chinese payload satellite in LEO that was launched on Tue, 15 Oct 2024 UTC via a CHANG ZHENG 6A launch vehicle from the Taiyaun Space Center, China (TSC). Payloads include a variety of satellites, spacecraft, and rockets equipped with specific instruments for various scientific and technological missions. These include communications satellites like Starlink; space stations such as the ISS; scientific satellites like the Hubble; Earth observation satellites from companies like Planet Labs, Umbra, and HawkEye 360; GPS; miniature CubeSats for education and research; and military/defense satellites.

Loading next visibility...
QIANFAN-23 details
Identifier
61556, 2024-185E
Orbit
LEO
Last TLE update17 hours ago
Origin
Flag of CNYUANX (CN / PRC)
ManufacturerGESIH/SECM
MissionOperational Commercial Communications
Bus & MotorQIANFAN, Unknown motor
Mass300 kg wet, ~300 kg dry
Launch date (UTC)
2024-10-15 (4 months ago)
Launch vehicle
CHANG ZHENG 6A
Launch site
Taiyaun Space Center, China (TSC)
Object type
Payload
Rocket body
Debris
Shape & HBRBox + 1 Pan, 10 m
Radar Cross Section13.200 m², Large (>1 m²)

Expand to show TLE details & history

TLE from 17 hours ago
0 QIANFAN-23
1 61556U 24185E   25035.57168985  .00001268  00000-0  63882-3 0  9994
2 61556  88.9884 113.4915 0006728 225.7547 134.3089 14.15796666 25713
Epoch: 2025-02-04T13:43Z
Definitive object data (Epoch: 2025-02-04T13:43:14.003Z)
Latitude-0°
Longitude132.70809°
Altitude846.045 km
Speed7.428 km/s
True Right ascension07h 33m 57s
True Declination0° 00' 00"
Sunlit
Object was in full shadow at TLE epoch
Visualization TLE readout
Latitude51.71727°
Longitude133.9016°
Altitude852.863 km
Speed7.429 km/s
Apparent Right ascension01h 21m 53s
Apparent Declination43° 36' 04"
Sunlit
Object is in full shadow
Visualization observer readout
Local Sidereal Time08:57:48
Azimuth317.329° NNW
Elevation12.522°
Doppler factor1
Orbital elements
Apogee altitude841.415 km
Perigee altitude831.707 km
Semi-major axis7,214.698 km
Eccentricity0.0006728
Inclination88.9884°
RAAN113.4915°
Arg. of periapsis225.7547°
True anomaly134.36404°
Mean anomaly134.3089°
Eccentric anomaly134.33647°
Mean motion3.54173 °/min
BSTAR0.00063882
Orbital period101.65 mins
Loading maneuver chart data...
Loading historical data...
Loading historical data...
Loading historical data...
Loading historical data...
Loading historical data...
Loading historical data...
Loading historical data...

QIANFAN-23 Visibility forecast

Observer location: undefined°, undefined

Span
Click to sort rows by Start time (UTC) header in descending order
Start Az.
Max El. time (UTC)
Max El. Az.
Max El.
End time (UTC)
End Az.
9 mins2025-02-05 17:27:33.205Z357.69° N2025-02-05 17:31:33.205Z221.49° SW44.217°2025-02-05 17:36:33.205Z186.237° SSW
9 mins2025-02-06 04:51:33.205Z146.405° SSE2025-02-06 04:55:33.205Z79.536° E34.289°2025-02-06 05:00:33.205Z13.267° NNE
7 mins2025-02-06 06:34:33.205Z241.077° WSW2025-02-06 06:37:33.205Z283.065° WNW21.081°2025-02-06 06:41:33.205Z330.11° NNW
|